Location: Brompton
(51.4000°N, 0.5333°E)
Time: 11:31:41
(UTC+00:00)

Cosmos 1898 Rocket - Pass Details

Date: 30 September 2021
Orbit: 752 x 784 km, 74.0° (Epoch: 17 October)

Event Time Altitude Azimuth Distance (km) Brightness Sun altitude
Rises 05:13:33 0° 335° (NNW) 3,271 6.6 -7.6°
Reaches altitude 10° 05:15:56 10° 335° (NNW) 2,343 5.8 -7.2°
Maximum altitude 05:21:17 89° 63° (ENE) 790 3.6 -6.4°
Drops below altitude 10° 05:26:38 10° 157° (SSE) 2,338 6.3 -5.6°
Sets 05:29:00 0° 157° (SSE) 3,263 7.1 -5.2°
